Weather Service Report


367 
ASUS41 KRLX 261910
RWRRLX
West Virginia Regional Weather Roundup
National Weather Service Charleston WV
Issued by National Weather Service Pittsburgh PA
300 PM EDT MON SEP 26 2016

Note: "fair" indicates few or no clouds below 12,000 feet with no
significant weather and/or obstructions to visibility.

WVZ003-262000-
Northern Panhandle of West Virginia
  
CITY           SKY/WX    TMP DP  RH WIND       PRES   REMARKS
WHEELING       HVY RAIN  67  60  78 NW9       29.96F                  
$$

WVZ009-262000-
Northwest West Virginia
  
CITY           SKY/WX    TMP DP  RH WIND       PRES   REMARKS
PARKERSBURG    PTSUNNY   75  58  55 VRB5      29.98F                  
$$

WVZ006-262000-
Western West Virginia
  
CITY           SKY/WX    TMP DP  RH WIND       PRES   REMARKS
HUNTINGTON     PTSUNNY   77  60  55 VRB6      29.99F                  
$$

WVZ015-262000-
West Central West Virginia
  
CITY           SKY/WX    TMP DP  RH WIND       PRES   REMARKS
CHARLESTON     PTSUNNY   74  69  85 W3        29.96R                  
$$

WVZ031-262000-
North Central West Virginia
  
CITY           SKY/WX    TMP DP  RH WIND       PRES   REMARKS
CLARKSBURG     MOSUNNY   70  63  78 S3        29.92F                  
MORGANTOWN     PTSUNNY   82  63  52 SW7       29.93F THUNDER HX  83   
$$

WVZ035-042-262000-
South Central West Virginia
  
CITY           SKY/WX    TMP DP  RH WIND       PRES   REMARKS
BECKLEY        SUNNY     78  62  57 SW10      30.03F HX  80           
BLUEFIELD      CLOUDY    75  61  61 W9        30.07F                  
$$

WVZ045-262000-
Greenbrier Valley of West Virginia
  
CITY           SKY/WX    TMP DP  RH WIND       PRES   REMARKS
LEWISBURG      PTSUNNY   78  62  57 SW9       30.03F HX  80           
$$

WVZ047-262000-
Northern Mountains of West Virginia
  
CITY           SKY/WX    TMP DP  RH WIND       PRES   REMARKS
ELKINS         SUNNY     78  65  63 S13G23    29.98F HX  80           
$$

WVZ052-262000-
Eastern Panhandle of West Virginia
  
CITY           SKY/WX    TMP DP  RH WIND       PRES   REMARKS
MARTINSBURG    CLOUDY    67  60  78 SE12      30.00F                  
PETERSBURG     MOSUNNY   84  65  52 S10G17    29.92F HX  86           
$$
  


420 
ASUS41 KRLX 261910
RWRRLX
West Virginia Regional Weather Roundup
National Weather Service Charleston WV
300 PM EDT MON SEP 26 2016

Note: "fair" indicates few or no clouds below 12,000 feet with no
significant weather and/or obstructions to visibility.

WVZ003-262000-
Northern Panhandle of West Virginia
  
CITY           SKY/WX    TMP DP  RH WIND       PRES   REMARKS
WHEELING       HVY RAIN  67  60  78 NW9       29.96F                  
$$

WVZ009-262000-
Northwest West Virginia
  
CITY           SKY/WX    TMP DP  RH WIND       PRES   REMARKS
PARKERSBURG    PTSUNNY   75  58  55 VRB5      29.98F                  
$$

WVZ006-262000-
Western West Virginia
  
CITY           SKY/WX    TMP DP  RH WIND       PRES   REMARKS
HUNTINGTON     PTSUNNY   77  60  55 VRB6      29.99F                  
$$

WVZ015-262000-
West Central West Virginia
  
CITY           SKY/WX    TMP DP  RH WIND       PRES   REMARKS
CHARLESTON     PTSUNNY   74  69  85 W3        29.96R                  
$$

WVZ022-031-262000-
North Central West Virginia
  
CITY           SKY/WX    TMP DP  RH WIND       PRES   REMARKS
CLARKSBURG     MOSUNNY   70  63  78 S3        29.92F                  
MORGANTOWN     PTSUNNY   82  63  52 SW7       29.93F THUNDER          
$$

WVZ025-035-042-045-262000-
Southern West Virginia
  
CITY           SKY/WX    TMP DP  RH WIND       PRES   REMARKS
BECKLEY        SUNNY     78  62  57 SW10      30.03F                  
LOGAN          PTSUNNY   73  70  88 CALM      29.98F                  
BLUEFIELD      CLOUDY    75  61  61 W9        30.07F                  
LEWISBURG      PTSUNNY   78  62  57 SW9       30.03F                  
$$

WVZ047-262000-
Northern Mountains of West Virginia
  
CITY           SKY/WX    TMP DP  RH WIND       PRES   REMARKS
ELKINS         SUNNY     78  65  63 S13G23    29.98F                  
$$

WVZ052-262000-
Eastern Panhandle of West Virginia
  
CITY           SKY/WX    TMP DP  RH WIND       PRES   REMARKS
MARTINSBURG    CLOUDY    67  60  78 SE12      30.00F                  
PETERSBURG     MOSUNNY   84  65  52 S10G17    29.92F                  
$$
  

Return to Home page


Western Regional Climate Center, wrcc@dri.edu